Погода в Левуке

Фиджи     17°40′58″S   178°49′58″E
темп.,
°C
ветер,
м/с
пор.,
м/с
влажн.,
%
обл.,
%
осадки,
мм/ч
давл.,
гПа
погр.,
м
16 мая, вс
вс1600:00+26в678934 5.6 1014405
03:00+26всв788898 2.9 1012511
06:00+26всв788755 5.2 1013481
09:00+26всв678693 0.4 1015587
12:00+26всв6785100 0.7 1014572
15:00+27всв678314 0.3 1012622
18:00+27всв68855 0.3 1013587
21:00+27всв67875 1.6 1015522
17 мая, пн
пн1700:00+27всв67855 3.8 1015608
03:00+26всв56855 1.1 1014450
06:00+27в55835 2.9 1014541
09:00+27в56825 0.4 1016623
12:00+27в55819 0.4 1014621
15:00+27в458114 0.2 1012642
18:00+27в56835 0.4 1013628
21:00+27в56835 0.3 1014589
18 мая, вт
вт1800:00+27в66835 1.7 1014580
03:00+26в66831 2.7 1013427
06:00+27вюв77821 6.1 1014659
09:00+27вюв78820 1.7 1015636
12:00+27вюв788112 3.0 1013781
15:00+27вюв678117 0.3 1011637
18:00+27вюв77810 0.8 1012661
21:00+26в67840 2.5 1014588
19 мая, ср
ср1900:00+26вюв67810 5.6 1013694
03:00+26вюв66841 1.6 1012604
06:00+26вюв78844 3.9 1012640
09:00+26вюв788312 2.3 1014690
12:00+26вюв898326 3.9 1012730
15:00+26вюв898217 1.8 1011737
18:00+26вюв8108319 3.7 1012793
21:00+26вюв9108322 1.9 1013794
20 мая, чт
чт2000:00+26вюв8108323 4.1 1013758
03:00+26вюв8108328 2.5 1011782
06:00+26в9108316 6.1 1011784
09:00+26в9118316 3.2 1013819
12:00+26в9108124 6.3 1011823
15:00+26в898299 2.4 1009775
18:00+26в8984100 4.7 1010708
21:00+26в7885100 3.3 1011591